Back to catalog

STARLINK-35890

AliveCommunicationsVLEO
NORAD 66835·PAYLOAD·🇺🇸 United States

Launched Dec 2, 2025 from Vandenberg Space Force Base

Loading…

Next Passes (next 24 hours)

TLE

FreshSource: CelesTrak SupGP

Epoch: Sep 14, 2026, 23:25 UTC

1 66835C 25280Q   26257.97618056 -.00032318  00000+0 -27079-2 0  2571
2 66835  70.0010 217.2079 0003110 267.5593 280.1379 14.98353631    12

Track STARLINK-35890 in real time with AllMySat

Download on the App Store